Location: Grossmotten
(48.5500°N, 15.3833°E)
Time: 11:43:51
(UTC+00:00)

CZ-2C R/B - Pass Details

Date: 15 November 2019
Orbit: 667 x 785 km, 98.1° (Epoch: 06 December)

Event Time Altitude Azimuth Distance (km) Brightness Sun altitude
Rises 04:41:02 0° 4° (N) 3,204 5.6 -14.0°
Reaches altitude 10° 04:43:42 10° 352° (N) 2,256 4.7 -13.6°
Maximum altitude 04:47:40 25° 299° (WNW) 1,446 3.4 -12.9°
Drops below altitude 10° 04:51:31 10° 245° (WSW) 2,182 4.4 -12.3°
Enters shadow 04:52:00 - 241° (WSW) 2,342 4.6 -12.2°
